www.pogodaiklimat.ru

Погода и климат >> Архив погоды >> Россия >> Камчатский край >> Апука


АРХИВ ПОГОДЫ в Апуке

Время (UTC), дата Ветер
(напр.,м/с)
 
Видим.   Явления Облачность Т
(С)
Тd
(С)
f
(%)
Тe
(С)
Тes
(С)
Комфортность P
(гПа)
Po
(гПа)
Тmin
(С)
Tmax
(С)
R
(мм)
R24
(мм)
S
(см)
03 17.02 ЮЗ 4
{12}
50 км 9/6 600 м
[Sc Ci fib]
-5.2 -10.6 66 -11 -11 989.4 988.8
06 17.02 С 4 50 км 9/0
[Ci fib]
-9.1 -13.0 73 -16 -16 990.8 990.2
09 17.02 В 4 50 км ясно -13.4 -16.1 80 -21 -21 992.0 991.4 -4.6
12 17.02 СВ 8 50 км ясно -8.3 -11.5 78 -18 -18 992.2 991.6
15 17.02 В 13-16
{16}
20 км 8/8 600 м
[Sc]
-8.2 -10.1 86 -20 -20 991.0 990.4
18 17.02 В 13-16
{18}
20 км 10/10 600 м
[Sc]
-8.3 -10.6 83 -20 -20 989.8 989.2
21 17.02 В 5
{15}
4000 м слаб. ливневой снег 10/10 600 м
[Cb cap]
-8.1 -9.9 87 -16 -16 990.8 990.2 -14.3 0.0 65
00 18.02 В 3 50 км {ливн. осадки} 9/9 600 м
[Sc]
-6.9 -9.0 85 -13 -12 992.4 991.8
03 18.02 СЗ 1 20 км 10/10 600 м
[Sc]
-5.0 -7.8 81 -7 -7 993.5 992.9
06 18.02 СВ 4 10 км слаб. ливневой снег 10/10 600 м
[Cb cap]
-6.8 -8.8 86 -13 -13 994.9 994.3
09 18.02 В 5 10 км слаб. ливневой снег 10/10 600 м
[Cb cap]
-6.6 -7.8 91 -14 -14 996.9 996.3 -4.7 3
12 18.02 СВ 2 20 км {ливн. осадки} 10/10 600 м
[Sc]
-10.4 -11.7 90 -15 -15 998.1 997.5
15 18.02 В 5 20 км 10/10 600 м
[Sc]
-7.0 -8.3 90 -15 -15 999.5 998.9
18 18.02 В 10-13
{13}
20 км 10/6 600 м
[Sc Ci fib]
-6.1 -9.1 79 -16 -16 999.3 998.3
21 18.02 З 7
{13}
50 км 9/8 600 м
[Sc Ci fib]
-4.2 -6.7 83 -12 -12 1003.1 1002.5 -12.2 0.2 65
00 19.02 ЮЗ 6 50 км 8/8 600 м
[Sc]
-4.3 -8.5 72 -12 -12 1006.0 1005.4
03 19.02 З 3 50 км 5/5 600 м
[Sc]
-5.5 -10.5 68 -11 -10 1006.2 1005.6
06 19.02 С 2 50 км 3/3 600 м
[Sc]
-8.3 -12.5 72 -13 -13 1005.7 1005.1
09 19.02 СВ 4 50 км ясно -15.3 -18.0 80 -23 -23 1005.2 1004.6 -4.1
12 19.02 СВ 2 50 км 3/0
[Ci fib]
-12.4 -16.7 70 -17 -17 1003.3 1002.7
15 19.02 В 2 50 км ясно -12.9 -18.1 65 -18 -18 1003.4 1002.8
18 19.02 ЮВ 4 50 км ясно -14.5 -19.6 65 -22 -22 1004.9 1004.3
21 19.02 СВ 2 50 км ясно -23.0 -25.6 79 -29 -29 1007.0 1006.4 -23.2 65
00 20.02 В 3 50 км ясно -19.1 -21.7 80 -27 -25 1008.3 1007.7
03 20.02 В 3 50 км ясно -17.5 -20.9 75 -25 -23 1008.3 1007.7
06 20.02 В 5 50 км ясно -20.5 -23.8 75 -31 -31 опасность
обморожения
1008.2 1007.7
09 20.02 СВ 5 50 км 3/0
[Ci fib]
-22.1 -25.4 74 -33 -33 опасность
обморожения
1008.3 1007.7 -17.1
12 20.02 В 5 50 км ясно -22.6 -25.8 75 -33 -33 опасность
обморожения
1007.9 1007.3
15 20.02 В 6 50 км ясно -24.0 -24.4 96 -36 -36 опасность
обморожения
1007.7 1007.1
18 20.02 В 4 50 км ясно -25.4 -28.5 75 -36 -36 опасность
обморожения
1007.5 1006.9
21 20.02 В 4 50 км ясно -26.3 -30.1 70 -37 -36 опасность
обморожения
1008.0 1007.4 -27.9 65
00 21.02 В 5 50 км ясно -22.7 -25.9 75 -33 -32 опасность
обморожения
1009.0 1008.4
03 21.02 СВ 4 50 км ясно -21.3 -24.6 75 -31 -30 опасность
обморожения
1009.2 1008.6
06 21.02 СВ 6 50 км ясно -23.0 -26.3 74 -35 -35 опасность
обморожения
1009.3 1008.7
09 21.02 СВ 5 50 км ясно -23.2 -26.4 75 -34 -34 опасность
обморожения
1009.4 1008.8 -21.1
12 21.02 СВ 8 50 км ясно -22.6 -25.8 75 -36 -36 опасность
обморожения
1007.9 1007.3
15 21.02 СВ 8 20 км 10/10 600 м
[Sc]
-20.0 -22.6 80 -32 -32 опасность
обморожения
1004.3 1003.7
18 21.02 В 14-15
{17}
20 км 10/10 600 м
[Sc]
-17.0 -19.6 80 -31 -31 опасность
обморожения
1001.7 1001.1
21 21.02 В 15-18
{19}
20 км позёмок 9/9 600 м
[Sc]
-16.0 -19.4 75 -30 -30 999.0 998.4 -23.4 65
00 22.02 СВ 12-15
{17}
20 км {метель} 9/9 600 м
[Sc]
-12.9 -18.1 65 -25 -25 996.4 995.8
03 22.02 СВ 13-17
{17}
20 км 10/10 600 м
[Sc]
-9.7 -15.5 63 -21 -21 991.5 990.9
06 22.02 С 7
{15}
20 км 10/10 600 м
[Sc]
-5.7 -13.8 53 -14 -14 989.3 988.7
09 22.02 СВ 5 20 км 10/10 600 м
[Sc]
-6.0 -12.3 61 -13 -13 987.4 986.8 -5.0
12 22.02 Ю 5 20 км 10/10 600 м
[Sc]
-5.5 -12.1 60 -12 -12 985.9 985.3
15 22.02 С 6 50 км ясно -9.5 -14.7 66 -18 -18 985.2 984.6
18 22.02 СВ 7 50 км ясно -11.0 -15.4 70 -20 -20 985.2 984.6
21 22.02 СВ 6 50 км 9/6 600 м
[Sc Ci fib]
-11.1 -16.4 65 -20 -20 986.3 985.7 -12.1 65
00 23.02 СВ 7 50 км 9/5 600 м
[Sc Ci fib]
-11.2 -15.6 70 -20 -20 987.0 986.4
03 23.02 СВ 6 50 км 8/8 600 м
[Sc]
-9.3 -14.4 66 -18 -18 987.2 986.6
06 23.02 СВ 2 50 км 4/4 600 м
[Sc]
-9.0 -13.4 70 -13 -13 988.3 987.7
09 23.02 В 3 20 км 9/9 600 м
[Sc]
-10.3 -13.9 75 -16 -16 989.7 989.1 -8.3
12 23.02 В 3 20 км 10/10 600 м
[Sc]
-10.2 -13.0 80 -16 -16 990.1 989.5
15 23.02 В 3 20 км 9/9 600 м
[Sc]
-10.1 -12.9 80 -16 -16 990.1 989.5
18 23.02 СВ 2 20 км 10/10 600 м
[Sc]
-10.2 -12.2 85 -15 -15 989.7 989.1
21 23.02 В 2 20 км 9/9 600 м
[Sc]
-11.6 -13.6 85 -16 -16 989.3 988.7 -11.9 65
00 24.02 СВ 1 10 км слаб. ливневой снег 10/10 600 м
[Cb cap]
-9.8 -11.5 87 -12 -12 988.2 987.6

 

Местоположение метеостанции Апука (Камчатский край, Россия): широта 60.43 долгота 169.60 высота над уровнем моря 5 м.

В архиве по умолчанию представлена погода в Апуке за последнюю неделю. Архивные данные за месяц целиком и за предыдущие месяцы, начиная с января 2011 года, Вы можете получить, выбрав интересующий диапазон дат из раскрывающегося списка и нажав кнопку "Ввод!".


*Определитесь, кто Вы:
робот инопланетянин человек

Внимание! Время в таблицах - всемирное. Для получения местного времени необходимо прибавить поправку, которая равна 12 ч.

Смотрите также архив погоды в соседних городах и на ближайших метеорологических станциях:

Погода в Тиличиках (Камчатский край, Россия) (198 км)
Погода в Каменском (Камчатский край, Россия) (291 км)
Погода в Слаутном (Камчатский край, Россия) (322 км)
Погода в Чемурнауте (Камчатский край, Россия) (362 км)
Погода в Оссоре (Камчатский край, Россия) (392 км)
Погода в Марково (Чукотка, Россия) (474 км)
Погода на Мысе Озерном (Камчатский край, Россия) (479 км)
Погода в Верхне-Пенжино (Камчатский край, Россия) (505 км)
Погода в Танюрере (Чукотка, Россия) (551 км)
Погода в Палане (Камчатский край, Россия) (563 км)

Пояснения к столбцам:

Ветер - указаны скорость ветра в м/с - средняя за 10 мин, порывы в срок и между сроками (в фигурных скобках) и направление, откуда дует ветер: С - северный, СВ - северо-восточный, В - восточный, ЮВ - юго-восточный, Ю - южный, ЮЗ - юго-западный, З - западный, СЗ - северо-западный.
Видимость - горизонтальная дальность видимости в метрах или километрах. При видимости от 1 до 10 км при отсутствии осадков обычно наблюдается дымка, при ухудшении видимости до 1 км и менее - туман. В сухую погоду видимость может ухудшаться дымом, пылью или мглою.
Явления - указаны атмосферные явления, наблюдавшиеся в срок или в последний час перед сроком; фигурными скобками обозначены явления, наблюдавшиеся между сроками (за 1-3 часа до срока); квадратными скобками обозначены град или гололедные отложения с указанием их диаметра в мм.
Облачность - указаны через наклонную черту общая и нижняя облачность в баллах и высота нижней границы облаков в метрах; квадратными скобками обозначены формы облаков: Ci - перистые, Cs - перисто-слоистые, Cc - перисто-кучевые, Ac - высококучевые, As - высокослоистые, Sc - слоисто-кучевые, Ns - слоисто-дождевые, Cu - кучевые, Cb - кучево-дождевые. Подробнее классификацию облаков см. в Атласе облаков (PDF).
T - Температура воздуха - температура, измеренная на высоте 2 м над землей.
Td - Температура точки росы - температура, при понижении до которой содержащийся в воздухе водяной пар достигнет насыщения.
f - Относительная влажность воздуха - влажноcть воздуха, измеренная на высоте 2 м над землей.
Te - Эффективная температура - температура, которую ощущает одетый по сезону человек в тени. Характеристика душности погоды. При расчете учитывается влияние влажности воздуха и скорости ветра на теплоощущения человека.
Tes - Эффективная температура на солнце - температура, которую ощущает человек, с поправкой на солнечный нагрев. Характеристика знойности погоды. Зависит от высоты солнца над горизонтом, облачности и скорости ветра. Ночью, в пасмурную погоду, а также при ветре 12 м/с и более поправка равна нулю.
P - Атмосферное давление - приведенное к уровню моря атмосферное давление.
Po - Атмосферное давление - измеренное на уровне метеостанции атмосферное давление.
Tmin - Минимальная температура - минимум температуры воздуха на высоте 2 м над землей.
Tmax - Максимальная температура - максимум температуры воздуха на высоте 2 м над землей.
R - Количество осадков - Количество выпавших осадков за период времени, мм. При наведении курсора мыши на число - период времени, за который выпало указанное количество осадков.
R24 - Количество осадков - Количество выпавших осадков за 24 часа, мм.
S - Снежный покров - Высота снежного покрова, см. При наведении курсора мыши на число - состояние снежного покрова и степень покрытия местности в баллах.